Location: Terre Du Lac
(37.9120°N, 90.6250°W)
Time: 06:12:27
(UTC-05:00)

HST - Visible Passes

Search period start: 25 October 2014 00:00
Search period end: 03 November 2014 23:00
Orbit: 546 x 550 km, 28.5° (Epoch: 24 October)

Date Brightness Start Highest point End Pass type
(mag) Time Alt. Az. Time Alt. Az. Time Alt. Az.
25 Oct 2.9 19:48:20 10° SSW 19:50:42 15° SSE 19:50:43 15° SSE visible
26 Oct 2.7 19:40:34 10° SSW 19:43:18 17° SSE 19:43:54 17° SSE visible
27 Oct 2.6 19:32:55 10° SW 19:35:54 19° S 19:37:03 17° SSE visible
28 Oct 2.6 19:25:22 10° SW 19:28:30 21° S 19:30:11 16° SE visible
29 Oct 2.6 19:17:52 10° SW 19:21:07 22° S 19:23:18 15° SE visible
30 Oct 2.6 19:10:26 10° SW 19:13:42 22° S 19:16:25 13° SE visible
30 Oct 3.8 20:51:45 10° SW 20:51:58 11° SW 20:51:58 11° SW visible
31 Oct 2.7 19:03:01 10° SW 19:06:18 22° S 19:09:34 10° SE visible
31 Oct 3.7 20:44:39 10° SW 20:45:07 12° SW 20:45:07 12° SW visible
01 Nov 2.8 18:55:40 10° SW 18:58:53 21° S 19:02:05 10° SE visible
01 Nov 3.7 20:37:45 10° SW 20:38:18 11° SW 20:38:18 11° SW visible
02 Nov 2.9 17:48:21 10° SW 17:51:27 20° S 17:54:33 10° SE visible
02 Nov 3.7 19:31:25 10° SSW 19:31:33 10° SSW 19:31:33 10° SSW visible
03 Nov 3.1 17:41:05 10° SW 17:44:00 18° S 17:46:55 10° SE visible
